DLH18M EDDK-EGLL

Flight info

Callsign DLH18M
Flight time 0h 56m
Altitude 32000
Route NVO2R NVO Y868 NAVAK DCT DENUT L608 LOGAN
Aircraft A320/M-SDE3FGHIRWY/LB1

Departure

Time 2026-04-26 22:42
Airport Cologne Bonn Airport (EDDK)

Arrival

Time 2026-04-26 23:38
Airport London Heathrow Airport (EGLL)
Time Latitude Longitude Altitude Speed Heading
2026-04-26 22:18 50.87693 7.12389 232 ft 0 kts 288°
2026-04-26 22:28 50.87692 7.12398 230 ft 2 kts 288°
2026-04-26 22:28 50.87686 7.12424 234 ft 2 kts 288°
2026-04-26 22:28 50.87681 7.12450 231 ft 2 kts 288°
2026-04-26 22:28 50.87675 7.12475 233 ft 2 kts 330°
2026-04-26 22:29 50.87659 7.12479 230 ft 2 kts 42°
2026-04-26 22:29 50.87652 7.12464 231 ft 0 kts 77°
2026-04-26 22:30 50.87656 7.12481 230 ft 4 kts 58°
2026-04-26 22:31 50.87677 7.12503 232 ft 3 kts 19°
2026-04-26 22:31 50.87704 7.12517 230 ft 7 kts 18°
2026-04-26 22:31 50.87751 7.12565 230 ft 15 kts 51°
2026-04-26 22:31 50.87715 7.12779 230 ft 29 kts 139°
2026-04-26 22:32 50.87530 7.13045 231 ft 49 kts 137°
2026-04-26 22:32 50.87266 7.13427 237 ft 50 kts 137°
2026-04-26 22:32 50.87021 7.13782 243 ft 45 kts 137°
2026-04-26 22:32 50.86802 7.14099 249 ft 40 kts 139°
2026-04-26 22:33 50.86587 7.14337 258 ft 36 kts 141°
2026-04-26 22:33 50.86241 7.14849 270 ft 32 kts 138°
2026-04-26 22:33 50.86082 7.15081 275 ft 30 kts 136°
2026-04-26 22:34 50.86047 7.15209 276 ft 29 kts 96°
2026-04-26 22:35 50.86080 7.15279 275 ft 1 kts 296°
2026-04-26 22:35 50.86080 7.15271 275 ft 0 kts 278°
2026-04-26 22:38 50.86080 7.15265 275 ft 5 kts 278°
2026-04-26 22:38 50.86075 7.15168 277 ft 4 kts 200°
2026-04-26 22:38 50.86058 7.15185 275 ft 4 kts 138°
2026-04-26 22:39 50.86058 7.15309 276 ft 16 kts 53°
2026-04-26 22:39 50.86171 7.15353 275 ft 29 kts 351°
2026-04-26 22:39 50.86380 7.15264 269 ft 26 kts 340°
2026-04-26 22:39 50.86489 7.15166 267 ft 0 kts 317°
2026-04-26 22:40 50.86490 7.15165 267 ft 0 kts 317°
2026-04-26 22:41 50.86494 7.15159 267 ft 2 kts 317°
2026-04-26 22:41 50.86516 7.15128 266 ft 12 kts 317°
2026-04-26 22:41 50.86775 7.14752 257 ft 87 kts 317°
2026-04-26 22:41 50.87374 7.13881 248 ft 144 kts 317°
2026-04-26 22:42 50.88198 7.12673 525 ft 160 kts 317°
2026-04-26 22:42 50.88944 7.11574 1459 ft 141 kts 317°
2026-04-26 22:42 50.89682 7.10457 1773 ft 160 kts 314°
2026-04-26 22:42 50.90442 7.09032 2102 ft 176 kts 307°
2026-04-26 22:43 50.91133 7.07369 2502 ft 184 kts 299°
2026-04-26 22:43 50.91652 7.05473 2879 ft 193 kts 284°
2026-04-26 22:43 50.91731 7.03313 3238 ft 202 kts 259°
2026-04-26 22:43 50.91212 7.01220 3643 ft 210 kts 244°
2026-04-26 22:44 50.90581 6.99078 4165 ft 218 kts 245°
2026-04-26 22:44 50.89886 6.96874 4747 ft 230 kts 244°
2026-04-26 22:44 50.89115 6.94595 5405 ft 239 kts 243°
2026-04-26 22:44 50.88275 6.92268 6111 ft 247 kts 242°
2026-04-26 22:45 50.87396 6.89903 6961 ft 246 kts 244°
2026-04-26 22:45 50.86614 6.87544 7934 ft 241 kts 249°
2026-04-26 22:45 50.86059 6.84939 8339 ft 261 kts 259°
2026-04-26 22:45 50.85656 6.82039 8862 ft 275 kts 261°
2026-04-26 22:46 50.85247 6.79060 9661 ft 279 kts 259°
2026-04-26 22:46 50.84770 6.76055 10456 ft 285 kts 257°
2026-04-26 22:46 50.84206 6.72911 10737 ft 308 kts 256°
2026-04-26 22:46 50.83549 6.69554 11010 ft 329 kts 254°
2026-04-26 22:47 50.82829 6.66064 11592 ft 337 kts 255°
2026-04-26 22:47 50.82368 6.62424 12276 ft 339 kts 266°
2026-04-26 22:47 50.82333 6.58683 12973 ft 342 kts 272°
2026-04-26 22:47 50.82378 6.54899 13665 ft 346 kts 272°
2026-04-26 22:48 50.82429 6.51075 14339 ft 349 kts 272°
2026-04-26 22:48 50.82480 6.47270 14966 ft 352 kts 272°
2026-04-26 22:48 50.82531 6.43375 15601 ft 355 kts 272°
2026-04-26 22:48 50.82580 6.39446 16235 ft 358 kts 272°
2026-04-26 22:49 50.82628 6.35487 16856 ft 361 kts 272°
2026-04-26 22:49 50.82676 6.31498 17471 ft 364 kts 272°
2026-04-26 22:49 50.82723 6.27471 18083 ft 367 kts 272°
2026-04-26 22:49 50.82764 6.23415 18669 ft 371 kts 272°
2026-04-26 22:50 50.82800 6.19325 19187 ft 373 kts 272°
2026-04-26 22:50 50.82835 6.15206 19716 ft 376 kts 272°
2026-04-26 22:50 50.82874 6.11061 20230 ft 378 kts 272°
2026-04-26 22:50 50.82911 6.06893 20760 ft 380 kts 271°
2026-04-26 22:51 50.82946 6.02700 21272 ft 382 kts 271°
2026-04-26 22:51 50.82946 5.98485 21775 ft 384 kts 270°
2026-04-26 22:51 50.82907 5.94243 22239 ft 387 kts 272°
2026-04-26 22:51 50.83176 5.90061 22704 ft 388 kts 282°
2026-04-26 22:52 50.83866 5.85924 23174 ft 390 kts 287°
2026-04-26 22:52 50.84640 5.81798 23649 ft 392 kts 287°
2026-04-26 22:52 50.85431 5.77652 24064 ft 395 kts 287°
2026-04-26 22:52 50.86231 5.73491 24466 ft 396 kts 287°
2026-04-26 22:53 50.87035 5.69308 24866 ft 398 kts 287°
2026-04-26 22:53 50.87841 5.65105 25255 ft 400 kts 287°
2026-04-26 22:53 50.88645 5.60883 25668 ft 401 kts 287°
2026-04-26 22:53 50.89447 5.56648 26061 ft 402 kts 287°
2026-04-26 22:54 50.90247 5.52394 26434 ft 404 kts 287°
2026-04-26 22:54 50.91050 5.48115 26805 ft 405 kts 287°
2026-04-26 22:54 50.91856 5.43825 27158 ft 407 kts 287°
2026-04-26 22:54 50.92660 5.39517 27519 ft 409 kts 287°
2026-04-26 22:55 50.93468 5.35179 27871 ft 411 kts 287°
2026-04-26 22:55 50.94277 5.30829 28218 ft 413 kts 287°
2026-04-26 22:55 50.95082 5.26510 28557 ft 414 kts 287°
2026-04-26 22:55 50.95901 5.22112 28880 ft 416 kts 287°
2026-04-26 22:56 50.96723 5.17683 29027 ft 422 kts 286°
2026-04-26 22:56 50.97555 5.13182 29165 ft 427 kts 286°
2026-04-26 22:56 50.98386 5.08661 29321 ft 432 kts 286°
2026-04-26 22:56 50.99234 5.04040 29448 ft 437 kts 286°
2026-04-26 22:57 51.00087 4.99387 29590 ft 441 kts 286°
2026-04-26 22:57 51.00943 4.94692 29775 ft 444 kts 286°
2026-04-26 22:57 51.01797 4.89985 30075 ft 444 kts 286°
2026-04-26 22:57 51.02649 4.85262 30421 ft 444 kts 286°
2026-04-26 22:58 51.03499 4.80552 30734 ft 443 kts 286°
2026-04-26 22:58 51.04347 4.75854 31033 ft 442 kts 286°
2026-04-26 22:58 51.05194 4.71173 31351 ft 441 kts 286°
2026-04-26 22:58 51.06028 4.66547 31615 ft 441 kts 285°
2026-04-26 22:59 51.06870 4.61860 31901 ft 440 kts 285°
2026-04-26 22:59 51.07704 4.57180 32201 ft 440 kts 285°
2026-04-26 22:59 51.08534 4.52502 32291 ft 439 kts 285°
2026-04-26 23:00 51.10193 4.43155 32310 ft 438 kts 285°
2026-04-26 23:00 51.11851 4.33812 32299 ft 438 kts 285°
2026-04-26 23:01 51.13490 4.24539 32305 ft 438 kts 285°
2026-04-26 23:01 51.15123 4.15172 32295 ft 438 kts 285°
2026-04-26 23:02 51.16745 4.05815 32305 ft 438 kts 285°
2026-04-26 23:02 51.18363 3.96446 32291 ft 438 kts 285°
2026-04-26 23:03 51.19972 3.87125 32297 ft 438 kts 285°
2026-04-26 23:03 51.21584 3.77736 32295 ft 438 kts 285°
2026-04-26 23:04 51.23198 3.68346 32293 ft 438 kts 288°
2026-04-26 23:04 51.25860 3.59687 32292 ft 438 kts 300°
2026-04-26 23:05 51.28979 3.51305 32316 ft 439 kts 300°
2026-04-26 23:05 51.32092 3.42914 32309 ft 439 kts 299°
2026-04-26 23:06 51.35069 3.34386 32287 ft 438 kts 292°
2026-04-26 23:06 51.37231 3.25355 32304 ft 437 kts 290°
2026-04-26 23:07 51.39388 3.16254 32300 ft 437 kts 290°
2026-04-26 23:07 51.41535 3.07147 32305 ft 436 kts 290°
2026-04-26 23:08 51.43677 2.98025 32298 ft 436 kts 290°
2026-04-26 23:08 51.45806 2.88912 32300 ft 436 kts 290°
2026-04-26 23:09 51.47915 2.79854 32307 ft 436 kts 290°
2026-04-26 23:09 51.50038 2.70731 32305 ft 435 kts 290°
2026-04-26 23:10 51.52143 2.61653 32315 ft 435 kts 290°
2026-04-26 23:10 51.54242 2.52516 32313 ft 435 kts 289°
2026-04-26 23:11 51.56330 2.43390 32312 ft 435 kts 289°
2026-04-26 23:11 51.58412 2.34254 32308 ft 435 kts 289°
2026-04-26 23:12 51.60489 2.25119 32315 ft 435 kts 289°
2026-04-26 23:12 51.62555 2.15969 32316 ft 435 kts 289°
2026-04-26 23:13 51.64627 2.06784 31399 ft 441 kts 289°
2026-04-26 23:13 51.65676 2.02134 30657 ft 441 kts 289°
2026-04-26 23:13 51.66723 1.97480 29987 ft 443 kts 289°
2026-04-26 23:13 51.67774 1.92795 29379 ft 446 kts 289°
2026-04-26 23:14 51.68827 1.88083 28758 ft 449 kts 289°
2026-04-26 23:14 51.69880 1.83340 28129 ft 451 kts 289°
2026-04-26 23:14 51.70936 1.78560 27513 ft 453 kts 289°
2026-04-26 23:14 51.71992 1.73764 26888 ft 455 kts 289°
2026-04-26 23:15 51.73045 1.68965 26270 ft 452 kts 289°
2026-04-26 23:15 51.74032 1.64177 25685 ft 448 kts 283°
2026-04-26 23:15 51.74491 1.59292 25094 ft 444 kts 272°
2026-04-26 23:15 51.74343 1.54341 24416 ft 444 kts 264°
2026-04-26 23:16 51.74014 1.49322 23712 ft 451 kts 264°
2026-04-26 23:16 51.73683 1.44295 22996 ft 450 kts 264°
2026-04-26 23:16 51.73357 1.39299 22329 ft 446 kts 264°
2026-04-26 23:16 51.73034 1.34352 21661 ft 441 kts 264°
2026-04-26 23:17 51.72711 1.29454 21005 ft 437 kts 264°
2026-04-26 23:17 51.72387 1.24595 20353 ft 434 kts 264°
2026-04-26 23:17 51.72067 1.19786 19708 ft 430 kts 264°
2026-04-26 23:17 51.71748 1.15006 19065 ft 427 kts 264°
2026-04-26 23:18 51.71430 1.10252 18399 ft 423 kts 264°
2026-04-26 23:18 51.71111 1.05552 17738 ft 420 kts 264°
2026-04-26 23:18 51.70795 1.00961 17118 ft 416 kts 264°
2026-04-26 23:18 51.70477 0.96338 16494 ft 413 kts 264°
2026-04-26 23:19 51.70164 0.91766 15879 ft 409 kts 264°
2026-04-26 23:19 51.69853 0.87235 15256 ft 405 kts 263°
2026-04-26 23:19 51.69541 0.82744 14636 ft 401 kts 263°
2026-04-26 23:19 51.69228 0.78300 14010 ft 397 kts 263°
2026-04-26 23:20 51.68915 0.73899 13373 ft 394 kts 263°
2026-04-26 23:20 51.68601 0.69518 12778 ft 392 kts 263°
2026-04-26 23:20 51.68290 0.65167 12180 ft 390 kts 263°
2026-04-26 23:20 51.67980 0.60818 11584 ft 389 kts 264°
2026-04-26 23:21 51.67670 0.56504 11314 ft 388 kts 264°
2026-04-26 23:21 51.67462 0.53643 11258 ft 389 kts 264°
2026-04-26 23:21 51.67147 0.49318 11124 ft 389 kts 263°
2026-04-26 23:21 51.66723 0.43527 10387 ft 388 kts 264°
2026-04-26 23:22 51.66514 0.40680 9949 ft 385 kts 264°
2026-04-26 23:22 51.66174 0.34973 9140 ft 380 kts 270°
2026-04-26 23:22 51.66185 0.30789 8649 ft 377 kts 271°
2026-04-26 23:22 51.66209 0.27939 8474 ft 377 kts 271°
2026-04-26 23:23 51.66248 0.23720 8222 ft 376 kts 271°
2026-04-26 23:23 51.66287 0.19562 7974 ft 375 kts 271°
2026-04-26 23:23 51.66326 0.15372 7725 ft 374 kts 271°
2026-04-26 23:23 51.66366 0.11171 7477 ft 372 kts 271°
2026-04-26 23:24 51.66405 0.07002 7229 ft 371 kts 271°
2026-04-26 23:24 51.66444 0.02856 6985 ft 370 kts 271°
2026-04-26 23:24 51.66484 -0.01274 6727 ft 369 kts 271°
2026-04-26 23:24 51.66520 -0.05412 6464 ft 369 kts 271°
2026-04-26 23:25 51.66555 -0.09539 6203 ft 368 kts 271°
2026-04-26 23:25 51.66587 -0.13572 5942 ft 351 kts 271°
2026-04-26 23:25 51.66614 -0.17361 5693 ft 335 kts 271°
2026-04-26 23:25 51.66638 -0.21052 5406 ft 326 kts 271°
2026-04-26 23:26 51.66661 -0.24654 5025 ft 314 kts 271°
2026-04-26 23:26 51.66685 -0.28054 4637 ft 294 kts 271°
2026-04-26 23:26 51.66708 -0.31249 4258 ft 279 kts 271°
2026-04-26 23:26 51.66732 -0.34347 3993 ft 272 kts 271°
2026-04-26 23:27 51.66755 -0.37357 3980 ft 267 kts 271°
2026-04-26 23:27 51.66778 -0.40360 3983 ft 267 kts 271°
2026-04-26 23:27 51.66801 -0.43356 3986 ft 268 kts 271°
2026-04-26 23:27 51.66824 -0.46355 4011 ft 267 kts 271°
2026-04-26 23:28 51.66847 -0.49351 4011 ft 268 kts 271°
2026-04-26 23:28 51.66870 -0.52343 4011 ft 266 kts 271°
2026-04-26 23:28 51.66892 -0.55330 3918 ft 266 kts 271°
2026-04-26 23:28 51.66913 -0.58295 3495 ft 265 kts 271°
2026-04-26 23:29 51.66934 -0.61251 3086 ft 263 kts 271°
2026-04-26 23:29 51.66958 -0.64170 3004 ft 255 kts 271°
2026-04-26 23:29 51.66980 -0.66889 3003 ft 238 kts 271°
2026-04-26 23:29 51.66982 -0.69569 3012 ft 235 kts 265°
2026-04-26 23:30 51.66440 -0.72007 3008 ft 233 kts 232°
2026-04-26 23:30 51.65227 -0.73581 3003 ft 220 kts 206°
2026-04-26 23:30 51.63853 -0.74584 3010 ft 215 kts 201°
2026-04-26 23:30 51.62464 -0.75338 3007 ft 212 kts 193°
2026-04-26 23:31 51.61032 -0.75879 3007 ft 211 kts 191°
2026-04-26 23:31 51.59591 -0.76387 3007 ft 211 kts 191°
2026-04-26 23:31 51.58155 -0.76888 3013 ft 211 kts 191°
2026-04-26 23:31 51.56724 -0.77387 3023 ft 211 kts 191°
2026-04-26 23:32 51.55288 -0.77895 3007 ft 211 kts 191°
2026-04-26 23:32 51.53852 -0.78408 3004 ft 211 kts 191°
2026-04-26 23:32 51.52415 -0.78890 3004 ft 211 kts 185°
2026-04-26 23:32 51.50963 -0.78791 3004 ft 206 kts 165°
2026-04-26 23:33 51.49706 -0.78003 2999 ft 186 kts 147°
2026-04-26 23:33 51.48731 -0.76735 3013 ft 177 kts 130°
2026-04-26 23:33 51.48049 -0.75126 3007 ft 173 kts 114°
2026-04-26 23:33 51.47685 -0.73307 3021 ft 170 kts 98°
2026-04-26 23:34 51.47628 -0.71409 2893 ft 170 kts 89°
2026-04-26 23:34 51.47641 -0.69523 2688 ft 166 kts 89°
2026-04-26 23:34 51.47653 -0.67740 2480 ft 155 kts 89°
2026-04-26 23:34 51.47663 -0.66039 2280 ft 150 kts 89°
2026-04-26 23:35 51.47672 -0.64421 2088 ft 142 kts 89°
2026-04-26 23:35 51.47680 -0.62856 1899 ft 139 kts 89°
2026-04-26 23:35 51.47688 -0.61332 1713 ft 138 kts 89°
2026-04-26 23:35 51.47696 -0.59802 1518 ft 137 kts 89°
2026-04-26 23:36 51.47704 -0.58276 1338 ft 136 kts 89°
2026-04-26 23:36 51.47711 -0.56761 1149 ft 136 kts 89°
2026-04-26 23:36 51.47718 -0.55246 965 ft 135 kts 89°
2026-04-26 23:36 51.47726 -0.53731 780 ft 134 kts 90°
2026-04-26 23:37 51.47734 -0.52268 602 ft 130 kts 90°
2026-04-26 23:37 51.47746 -0.50837 425 ft 127 kts 89°
2026-04-26 23:37 51.47743 -0.49434 237 ft 125 kts 91°
2026-04-26 23:37 51.47743 -0.48048 95 ft 125 kts 91°
2026-04-26 23:38 51.47748 -0.46701 90 ft 114 kts 88°
2026-04-26 23:38 51.47760 -0.45611 85 ft 86 kts 90°
2026-04-26 23:38 51.47763 -0.44778 89 ft 62 kts 89°
2026-04-26 23:38 51.47765 -0.44202 85 ft 42 kts 90°
2026-04-26 23:39 51.47747 -0.43869 87 ft 13 kts 136°
2026-04-26 23:39 51.47697 -0.43817 87 ft 7 kts 150°
2026-04-26 23:39 51.47662 -0.43785 88 ft 5 kts 150°
2026-04-26 23:39 51.47625 -0.43769 86 ft 5 kts 189°
2026-04-26 23:40 51.47594 -0.43840 89 ft 11 kts 265°
2026-04-26 23:40 51.47593 -0.43953 86 ft 10 kts 269°
2026-04-26 23:40 51.47580 -0.44048 90 ft 8 kts 233°
2026-04-26 23:40 51.47535 -0.44062 89 ft 6 kts 177°
2026-04-26 23:41 51.47503 -0.44075 88 ft 4 kts 234°
2026-04-26 23:41 51.47504 -0.44272 86 ft 30 kts 266°
2026-04-26 23:41 51.47481 -0.44556 91 ft 16 kts 224°
2026-04-26 23:41 51.47417 -0.44561 86 ft 11 kts 175°
2026-04-26 23:42 51.47308 -0.44559 86 ft 17 kts 179°
2026-04-26 23:42 51.47058 -0.44558 86 ft 13 kts 185°
2026-04-26 23:42 51.47037 -0.44633 86 ft 6 kts 261°
2026-04-26 23:43 51.47037 -0.44678 86 ft 0 kts 268°